Holzheim bei Oder, Germany

12:40 PM CET on February 28, 2017 (GMT +0100)
Hohenfels Army Air Field

Weather History for ETIH - March, 2013

Change the Weather History Date:

Sunday, March 3, 2013

  Actual Average Record
Temperature  
Mean Temperature 29 °F -  
Max Temperature 41 °F - - ()
Min Temperature 17 °F - - ()
Degree Days  
Heating Degree Days 36    
Moisture  
Dew Point 22 °F    
Average Humidity 76    
Maximum Humidity 91    
Minimum Humidity 50    
Precipitation  
Precipitation 0.00 in - - ()
Sea Level Pressure  
Sea Level Pressure 30.24 in    
Wind  
Wind Speed 1 mph ()    
Max Wind Speed 5 mph    
Max Gust Speed -    
Visibility 6.2 miles    
Events      
T = Trace of Precipitation, MM = Missing Value Source: Averaged Metar Reports

Daily Weather History Graph

Daily Weather History Graph

Search for Another Location

Airport or City:

Trip Planner

Search our weather history database for the weather conditions in past years. The results will help you decide how hot, cold, wet, or windy it might be!

Date:

Astronomy

Mar. 03, 2013 Rise Set
Actual Time 6:50 AM CET 5:59 PM CET
Civil Twilight 6:19 AM CET 6:30 PM CET
Nautical Twilight 5:42 AM CET 7:07 PM CET
Astronomical Twilight 5:05 AM CET 7:44 PM CET
Moon No Moon Rise 9:17 AM CET (3/3)
Length of Visible Light 12h 11m
Length of Day
11h 08m
Waning Gibbous, 66% of the Moon is Illuminated
Mar 3
Waning Gibbous
Mar 4
Last Quarter
Mar 11
New
Mar 19
First Quarter
Mar 27
Full

Hourly Weather History & Observations

Time (CET) Temp. Windchill Dew Point Humidity Pressure Visibility Wind Dir Wind Speed Gust Speed Precip Events Conditions
12:58 AM 22.3 °F - 18.0 °F 83% 30.24 in 6.2 mi NNW 2.3 mph - N/A   Clear
1:58 AM 21.4 °F - 17.6 °F 85% 30.24 in 6.2 mi NNW 2.3 mph - N/A   Clear
2:58 AM 20.5 °F - 17.1 °F 87% 30.22 in 6.2 mi NNW 2.3 mph - N/A   Clear
3:58 AM 20.1 °F - 16.9 °F 87% 30.21 in 6.2 mi North 2.3 mph - N/A   Clear
4:58 AM 18.7 °F - 16.0 °F 89% 30.22 in 6.2 mi NNW 1.2 mph - N/A   Clear
5:58 AM 17.6 °F - 15.4 °F 91% 30.24 in 6.2 mi Calm Calm - N/A   Clear
6:58 AM 17.8 °F - 15.3 °F 90% 30.25 in 6.2 mi Calm Calm - N/A   Clear
7:58 AM 19.9 °F - 17.2 °F 89% 30.26 in 6.2 mi Calm Calm - N/A   Clear
8:58 AM 28.0 °F - 23.2 °F 82% 30.25 in 6.2 mi Calm Calm - N/A   Clear
9:58 AM 32.7 °F - 24.6 °F 72% 30.25 in 6.2 mi Calm Calm - N/A   Clear
10:58 AM 35.4 °F 32.6 °F 25.7 °F 68% 30.25 in 6.2 mi NW 3.5 mph - N/A   Clear
11:58 AM 37.0 °F - 24.8 °F 61% 30.24 in 6.2 mi Variable 2.3 mph - N/A   Clear
12:58 PM 39.6 °F 37.4 °F 25.0 °F 56% 30.24 in 6.2 mi WNW 3.5 mph - N/A   Clear
1:58 PM 39.9 °F - 24.3 °F 54% 30.22 in 6.2 mi Variable 1.2 mph - N/A   Clear
2:58 PM 41.5 °F - 23.9 °F 50% 30.21 in 6.2 mi Variable 2.3 mph - N/A   Clear
3:58 PM 41.9 °F 39.0 °F 24.3 °F 50% 30.20 in 6.2 mi West 4.6 mph - N/A   Clear
4:58 PM 41.4 °F 39.4 °F 24.6 °F 51% 30.21 in 6.2 mi WNW 3.5 mph - N/A   Clear
5:58 PM 37.6 °F - 28.0 °F 68% 30.22 in 6.2 mi Variable 1.2 mph - N/A   Clear
6:58 PM 33.4 °F - 27.0 °F 77% 30.26 in 6.2 mi North 2.3 mph - N/A   Clear
7:58 PM 29.3 °F - 25.3 °F 85% 30.26 in 6.2 mi WNW 2.3 mph - N/A   Clear
8:58 PM 27.3 °F - 24.3 °F 88% 30.25 in 6.2 mi Calm Calm - N/A   Clear
9:58 PM 26.1 °F - 23.2 °F 89% 30.27 in 6.2 mi Calm Calm - N/A   Clear
10:58 PM 25.0 °F - 22.5 °F 90% 30.27 in 6.2 mi NNW 1.2 mph - N/A   Clear
11:58 PM 23.7 °F - 21.6 °F 91% 30.27 in 6.2 mi Calm Calm - N/A   Clear